AEROCUBE 8D

Last updated on Sun Jun 21 2026 00:03:50 GMT+0000 (Coordinated Universal Time)

1 41852U 16067E 26171.17504018 .00006264 00000+0 25856-3 0 9999 2 41852 98.0674 41.5731 0004844 116.1739 243.9995 15.24432262526527
UTC large
Height (km)
Speed (km/s)
/
Latitude / Longitude
Inclination (degrees)
Orbital Period (minutes)
Azimuth
Elevation
Range (km)
Doppler Factor

Next 0 passes for location: London (51.5072 / 0.1276)

No passes found over London.
AEROCUBE 8D